Sarasota, FL

6:37 PM EST on December 16, 2017 (GMT -0500)
Sarasota-bradenton

Weather History for KSRQ - November, 2012

Change the Weather History Date:

Friday, November 23, 2012

  Actual Average Record
Temperature  
Mean Temperature 60 °F 68 °F  
Max Temperature 72 °F 77 °F 90 °F (1963)
Min Temperature 47 °F 58 °F 36 °F (1981)
Degree Days  
Heating Degree Days 5 2  
Month to date heating degree days 25 14  
Since 1 July heating degree days 25 17  
Cooling Degree Days 0 4  
Month to date cooling degree days 65 129  
Year to date cooling degree days 3713 3273  
Growing Degree Days 10 (Base 50)    
Moisture  
Dew Point 40 °F    
Average Humidity 55    
Maximum Humidity 83    
Minimum Humidity 27    
Precipitation  
Precipitation 0.00 in 0.06 in 1.78 in (1988)
Month to date precipitation 0.35 1.46  
Year to date precipitation 44.04 50.01  
Sea Level Pressure  
Sea Level Pressure 30.15 in    
Wind  
Wind Speed 6 mph (NNE)    
Max Wind Speed 17 mph    
Max Gust Speed 22 mph    
Visibility 10 miles    
Events      
T = Trace of Precipitation, MM = Missing Value Source: NWS Daily Summary

Daily Weather History Graph

Daily Weather History Graph

Search for Another Location

Airport or City:

Trip Planner

Search our weather history database for the weather conditions in past years. The results will help you decide how hot, cold, wet, or windy it might be!

Date:

Astronomy

Nov. 23, 2012 Rise Set
Actual Time 6:57 AM EST 5:36 PM EST
Civil Twilight 6:32 AM EST 6:01 PM EST
Nautical Twilight 6:03 AM EST 6:29 PM EST
Astronomical Twilight 5:35 AM EST 6:57 PM EST
Moon 2:31 PM EST (11/23) 2:35 AM EST (11/23)
Length of Visible Light 11h 28m
Length of Day
10h 38m
Waxing Gibbous, 79% of the Moon is Illuminated
Nov 23
Waxing Gibbous
Nov 28
Full
Dec 6
Last Quarter
Dec 13
New
Dec 20
First Quarter

Hourly Weather History & Observations

Time (EST) Temp. Dew Point Humidity Pressure Visibility Wind Dir Wind Speed Gust Speed Precip Events Conditions
12:53 AM 51.1 °F 37.0 °F 59% 30.16 in 10.0 mi NE 5.8 mph - N/A   Clear
1:53 AM 50.0 °F 36.0 °F 59% 30.16 in 10.0 mi NE 3.5 mph - N/A   Clear
2:53 AM 48.9 °F 37.0 °F 64% 30.15 in 10.0 mi NE 3.5 mph - N/A   Clear
3:53 AM 48.0 °F 37.9 °F 68% 30.15 in 10.0 mi NE 3.5 mph - N/A   Clear
4:53 AM 48.0 °F 37.9 °F 68% 30.15 in 10.0 mi NNE 3.5 mph - N/A   Clear
5:53 AM 48.9 °F 37.0 °F 64% 30.16 in 10.0 mi NE 5.8 mph - N/A   Clear
6:53 AM 48.0 °F 37.0 °F 66% 30.17 in 10.0 mi NNE 4.6 mph - N/A   Clear
7:53 AM 51.1 °F 39.9 °F 66% 30.20 in 10.0 mi North 4.6 mph - N/A   Clear
8:53 AM 60.1 °F 39.9 °F 47% 30.22 in 10.0 mi North 6.9 mph - N/A   Clear
9:53 AM 64.9 °F 36.0 °F 34% 30.22 in 10.0 mi NNE 8.1 mph - N/A   Clear
10:53 AM 68.0 °F 36.0 °F 31% 30.21 in 10.0 mi NNE 10.4 mph - N/A   Clear
11:53 AM 70.0 °F 36.0 °F 29% 30.19 in 10.0 mi NNE 11.5 mph 20.7 mph N/A   Clear
12:53 PM 71.1 °F 35.1 °F 27% 30.15 in 10.0 mi NNE 12.7 mph - N/A   Clear
1:53 PM 71.1 °F 36.0 °F 28% 30.13 in 10.0 mi North 13.8 mph 19.6 mph N/A   Clear
2:53 PM 71.1 °F 37.0 °F 29% 30.11 in 10.0 mi North 10.4 mph - N/A   Clear
3:53 PM 70.0 °F 39.9 °F 33% 30.11 in 10.0 mi NW 11.5 mph - N/A   Clear
4:53 PM 66.9 °F 44.1 °F 44% 30.12 in 10.0 mi NW 9.2 mph - N/A   Clear
5:53 PM 61.0 °F 43.0 °F 52% 30.12 in 10.0 mi NW 5.8 mph - N/A   Clear
6:53 PM 57.9 °F 45.0 °F 62% 30.13 in 10.0 mi NW 5.8 mph - N/A   Clear
7:53 PM 57.0 °F 46.0 °F 67% 30.14 in 10.0 mi Calm Calm - N/A   Clear
8:53 PM 55.0 °F 46.0 °F 72% 30.13 in 10.0 mi Calm Calm - N/A   Clear
9:53 PM 53.1 °F 46.9 °F 80% 30.13 in 10.0 mi Calm Calm - N/A   Clear
10:53 PM 52.0 °F 46.9 °F 83% 30.13 in 10.0 mi Calm Calm - N/A   Clear
11:53 PM 52.0 °F 48.9 °F 89% 30.12 in 10.0 mi Calm Calm - N/A   Clear